Location: Frankfurt+(oder)
(51.7984°N, 12.2168°E)
Time: 16:34:33
(UTC+01:00)

ISS - Pass Details

Date: 11 February 2018
Orbit: 402 x 407 km, 51.6° (Epoch: 25 February)

Event Time Altitude Azimuth Distance (km) Brightness Sun altitude
Rises 17:47:40 0° 283° (WNW) 2,322 1.2 -5.2°
Reaches altitude 10° 17:49:50 10° 275° (W) 1,460 0.4 -5.5°
Maximum altitude 17:52:52 36° 206° (SSW) 654 -2.3 -5.9°
Drops below altitude 10° 17:55:54 10° 138° (SE) 1,455 -1.3 -6.4°
Sets 17:58:04 0° 130° (SE) 2,312 -0.3 -6.7°
